Location: Dead Woman Crossing
(43.5369°N, 106.3228°W)
Time: 22:12:19
(UTC+00:00)

O/OREOS (USA 219) - Pass Details

Date: 07 July 2022
Orbit: 621 x 646 km, 72.0° (Epoch: 22 May)

Event Time Altitude Azimuth Distance (km) Brightness Sun altitude
Rises 04:28:41 0° 354° (N) 2,966 ? -14.2°
Reaches altitude 10° 04:33:21 10° 37° (NE) 2,052 ? -14.7°
Maximum altitude 04:34:02 10° 46° (NE) 2,033 ? -14.8°
Drops below altitude 10° 04:34:43 10° 54° (NE) 2,051 ? -14.9°
Enters shadow 04:37:31 - 84° (E) 2,474 ? -15.2°
